Flag for Mexico Weather past 2 weeks in Mexico City, Federal District, Mexico

Now
55 °F

Clear.


Feels Like: 54 °F
Forecast: 45 / 71 °F
Wind: 6 mph from East

Location: Mexico City / Licenci

Current Time: Feb 1, 2015 at 3:21:22 AM

Latest Report: Jan 31, 2015 at 11:46 PM


Visibility: 12 mi

Pressure: 29.85 "Hg

Humidity: 47%

Dew point: 36 °F

Location of Mexico CityLocation

Historic Weather in Mexico City — Graph

°F

Mexico City temperature yesterday

Maximum temperature yesterday: 75 °F (at 2:47 PM)
Minimum temperature yesterday: 39 °F (at 7:22 AM)
Average temperature yesterday: 57 °F

Past Weeks' High & Low Weather Summary

 TemperatureHumidityPressure
High75 °F (Jan 31, 2:47 PM)87% (Jan 24, 6:47 AM)30.50 "Hg (Jan 24, 6:47 AM)
Low39 °F (Jan 31, 7:22 AM)11% (Jan 31, 3:45 PM)29.67 "Hg (Jan 21, 2:45 PM)
Average58 °F52%30.21 "Hg
* Reported Jan 16 11:41 PM — Jan 31 11:46 PM, Mexico City, Weather by CustomWeather, © 2014

Note: Actual official high and low records may vary slightly from our data, if they occured in-between our weather recording intervals... More about our weather records

Advertising

Mexico City weather history for previous 24 hours

 ConditionsComfort  
Time TempWeatherWind HumidityBarometerVisibility
11:46 PM
Jan 31
55 °FClear.6 mph47%29.85 "Hg12 mi
8:49 PM59 °FClear.8 mph39%29.87 "Hg10 mi
7:48 PM61 °FClear.8 mph39%30.21 "Hg10 mi
6:45 PM63 °FClear.17 mph37%30.19 "Hg10 mi
6:15 PM66 °FSleet. Cloudy.N/A30%30.16 "HgN/A
5:48 PM70 °FSunny.9 mph27%29.75 "Hg10 mi
4:48 PM73 °FSunny.8 mph20%30.13 "Hg10 mi
3:45 PM75 °FSunny.17 mph11%30.13 "Hg12 mi
2:47 PM75 °FSunny.12 mph12%29.70 "Hg12 mi
11:44 AM64 °FSunny.3 mph34%29.85 "Hg5 mi
10:46 AM59 °FSunny.5 mph42%30.29 "Hg5 mi
10:18 AM57 °FSleet. Cloudy.N/A48%30.29 "HgN/A
9:22 AM52 °FSunny.5 mph58%30.30 "Hg5 mi
8:46 AM50 °FSunny.3 mph62%29.94 "Hg6 mi
8:23 AM48 °FSunny.2 mph66%30.29 "Hg6 mi
7:46 AM43 °FSunny.3 mph76%30.29 "Hg6 mi
7:22 AM39 °FPassing clouds.5 mph87%30.28 "Hg5 mi
6:21 AM41 °FPassing clouds.6 mph81%30.28 "Hg6 mi
3:56 AM45 °FPassing clouds.5 mph76%30.28 "Hg6 mi
Weather by CustomWeather, © 2014

See weather overviewHow to use our weather pages